Camarillo, CA

9:41 AM PST on February 13, 2016 (GMT -0800)
Camarillo

Weather History for KCMA - June, 2013

Change the Weather History Date:

Wednesday, June 19, 2013

  Actual Average Record
Temperature  
Mean Temperature 71 °F 65 °F  
Max Temperature 84 °F 73 °F 87 °F (2008)
Min Temperature 58 °F 57 °F 46 °F (1949)
Degree Days  
Heating Degree Days 0 1  
Month to date heating degree days 0 31  
Since 1 June heating degree days 0 31  
Since 1 July heating degree days 1424 1974  
Cooling Degree Days 6 1  
Month to date cooling degree days 66 7  
Year to date cooling degree days 172 38  
Since 1 June cooling degree days 66 7  
Growing Degree Days 20 (Base 50)    
Moisture  
Dew Point 52 °F    
Average Humidity 53    
Maximum Humidity 78    
Minimum Humidity 28    
Precipitation  
Precipitation 0.00 in 0.00 in 0.01 in (2003)
Month to date precipitation T 0.05  
Year to date precipitation 2.15 10.98  
Since 1 July precipitation 4.86  
Sea Level Pressure  
Sea Level Pressure 29.85 in    
Wind  
Wind Speed 5 mph (SSW)    
Max Wind Speed 14 mph    
Max Gust Speed 18 mph    
Visibility 10 miles    
Events      
T = Trace of Precipitation, MM = Missing Value Source: NWS Daily Summary

Daily Weather History Graph

Daily Weather History Graph

Search for Another Location

Airport or City:

Trip Planner

Search our weather history database for the weather conditions in past years. The results will help you decide how hot, cold, wet, or windy it might be!

Date:

Astronomy

Jun. 19, 2013 Rise Set
Actual Time 5:44 AM PDT 8:11 PM PDT
Civil Twilight 5:15 AM PDT 8:40 PM PDT
Nautical Twilight 4:39 AM PDT 9:16 PM PDT
Astronomical Twilight 3:59 AM PDT 9:56 PM PDT
Moon 4:16 PM PDT (6/19) 2:24 AM PDT (6/19)
Length of Visible Light 15h 25m
Length of Day
14h 26m
Waxing Gibbous, 81% of the Moon is Illuminated
Jun 19
Waxing Gibbous
Jun 23
Full
Jun 29
Last Quarter
Jul 8
New
Jul 15
First Quarter

Hourly Weather History & Observations

Time (PDT) Temp. Dew Point Humidity Pressure Visibility Wind Dir Wind Speed Gust Speed Precip Events Conditions
12:55 AM 63.0 °F 53.1 °F 70% 29.86 in 9.0 mi Calm Calm - N/A   Clear
1:55 AM 62.1 °F 53.1 °F 72% 29.85 in 9.0 mi Calm Calm - N/A   Clear
2:55 AM 60.1 °F 53.1 °F 78% 29.84 in 9.0 mi East 3.5 mph - N/A   Clear
3:55 AM 61.0 °F 53.1 °F 75% 29.85 in 9.0 mi Calm Calm - N/A   Clear
4:55 AM 59.0 °F 51.1 °F 75% 29.85 in 10.0 mi ENE 4.6 mph - N/A   Clear
5:55 AM 59.0 °F 51.1 °F 75% 29.86 in 9.0 mi ENE 5.8 mph - N/A   Clear
6:55 AM 62.1 °F 52.0 °F 70% 29.88 in 9.0 mi ENE 4.6 mph - N/A   Clear
7:55 AM 64.9 °F 54.0 °F 68% 29.89 in 10.0 mi Calm Calm - N/A   Clear
8:55 AM 68.0 °F 55.9 °F 65% 29.90 in 10.0 mi Calm Calm - N/A   Clear
9:55 AM 73.9 °F 55.0 °F 52% 29.90 in 10.0 mi WSW 3.5 mph - N/A   Clear
10:55 AM 75.9 °F 52.0 °F 43% 29.90 in 10.0 mi WSW 11.5 mph - N/A   Clear
11:55 AM 75.9 °F 51.1 °F 42% 29.90 in 10.0 mi West 9.2 mph 16.1 mph N/A   Clear
12:55 PM 78.1 °F 52.0 °F 40% 29.88 in 10.0 mi SW 10.4 mph - N/A   Clear
1:55 PM 80.1 °F 48.9 °F 34% 29.86 in 10.0 mi West 10.4 mph - N/A   Clear
2:55 PM 82.9 °F 46.0 °F 27% 29.84 in 10.0 mi SW 10.4 mph - N/A   Clear
3:55 PM 82.0 °F 48.0 °F 30% 29.82 in 10.0 mi SSW 8.1 mph - N/A   Clear
4:55 PM 79.0 °F 52.0 °F 39% 29.81 in 10.0 mi SW 9.2 mph - N/A   Clear
5:55 PM 75.0 °F 52.0 °F 44% 29.81 in 10.0 mi SW 8.1 mph - N/A   Clear
6:55 PM 73.9 °F 53.1 °F 48% 29.80 in 10.0 mi SW 4.6 mph - N/A   Clear
7:55 PM 70.0 °F 52.0 °F 53% 29.81 in 10.0 mi SSW 5.8 mph - N/A   Clear
8:55 PM 68.0 °F 51.1 °F 55% 29.81 in 10.0 mi SE 4.6 mph - N/A   Clear
9:55 PM 66.9 °F 52.0 °F 59% 29.83 in 10.0 mi ESE 3.5 mph - N/A   Clear
10:55 PM 66.9 °F 51.1 °F 57% 29.83 in 10.0 mi SE 3.5 mph - N/A   Clear
11:55 PM 66.0 °F 51.1 °F 59% 29.84 in 10.0 mi Calm Calm - N/A   Clear